APSTAR-6E

Last updated on Thu Oct 30 2025 00:02:52 GMT+0000 (Coordinated Universal Time)

1 55239U 23005A 25301.92680188 -.00000308 00000+0 00000+0 0 9997 2 55239 0.0149 227.4135 0004059 4.3539 273.4300 1.00268862 16386
UTC large
Height (km)
Speed (km/s)
/
Latitude / Longitude
Inclination (degrees)
Orbital Period (minutes)
Azimuth
Elevation
Range (km)
Doppler Factor

Next 0 passes for location: London (51.5072 / 0.1276)

Sorry there are no passes over London.